Wind_Speed
8 6 8 5 3 3 6 4 4 5 5 6 7 11 10 9 9 6 6 5 8 10 10 7 5 2 5 4 4 3 4 5 6 7 6 6 5 6 6 6 5 6 4 7 10 10 11
14 13 12 9 5 5 4 1 6 7 7 7 6 7 8 8 7 7 6 6 9 11 11 9 6 3 4 3 4 4 4 5 6 6 6 6 6 13 12 6 5 7 14 10 6 7 5
14 13 15 14 12 7 4 3 3 6 11 10 7 7 8 8 7 8 7 7 9 10 11 10 6 3 4 6 4 5 6 7 8 8 11 13 12 4 9 7 12 9 6 4 6 2 3
12 10 9 14 14 10 6 5 4 5 6 4 9 10 8 9 8 7 8 7 7 9 10 8 6 2 4 7 5 5 7 9 11 11 12 13 14 13 6 19 6 4 4 4 2 1 1
13 10 7 9 15 15 11 7 5 5 7 4 4 7 9 10 10 9 7 6 7 8 9 8 5 2 3 6 5 5 7 9 10 10 11 10 6 9 8 6 4 5 3 2 1 0 1
8 10 9 9 9 17 14 10 8 6 6 5 4 6 9 11 10 9 9 9 9 8 8 7 3 3 4 5 6 6 8 9 6 10 7 3 5 4 4 4 5 6 4 1 3 1 1
13 10 10 12 9 8 14 14 12 9 7 4 5 7 9 11 11 11 14 14 10 4 5 2 2 3 6 7 8 6 7 8 9 4 3 4 5 4 6 2 3 7 5 4 1 1 1
10 14 12 12 12 11 10 14 16 12 9 7 6 8 9 11 13 14 17 6 5 4 6 3 5 5 8 7 4 6 7 3 4 4 1 5 3 1 6 5 6 4 4 3 1 1 1
8 11 12 14 14 10 12 12 12 15 12 9 8 10 11 14 15 16 17 3 6 7 4 3 3 3 5 4 3 4 4 5 5 4 3 5 3 4 4 3 5 4 4 4 2 1 2
11 11 13 13 13 12 12 11 9 12 13 10 8 11 14 17 13 17 14 5 7 3 3 3 3 2 4 4 4 4 5 3 4 5 4 5 2 3 4 4 3 4 1 4 3 3 3
14 13 12 11 12 15 13 10 10 11 12 11 11 14 17 18 8 20 10 9 6 2 1 3 3 4 5 4 5 2 4 3 5 4 5 4 5 3 3 3 2 4 2 4 2 4 3
17 16 15 13 12 10 14 14 13 10 12 11 13 16 22 19 10 18 11 10 5 3 5 4 3 3 4 3 2 3 2 5 7 5 6 3 2 4 3 4 3 10 6 6 4 3 1
21 20 18 17 15 14 12 12 12 12 11 10 16 19 19 15 10 16 13 12 4 3 2 3 3 4 3 3 3 2 2 2 5 5 3 2 2 2 5 6 5 6 5 2 3 2 5
24 23 21 20 18 17 15 14 12 10 9 14 18 21 20 22 9 18 15 4 3 2 3 2 4 4 4 5 1 2 4 2 4 4 3 6 3 4 1 3 6 4 4 5 8 4 3
25 25 24 23 21 20 18 18 16 14 12 18 19 22 20 22 9 17 11 2 7 6 7 9 3 4 4 2 4 3 6 5 7 10 6 5 2 1 4 1 2 5 2 4 7 0 2
26 25 24 25 24 22 21 19 19 17 15 18 21 17 21 22 13 16 3 5 4 4 8 3 7 3 7 7 5 4 7 4 4 8 3 7 5 2 0 1 5 4 1 4 2 3 5
25 26 27 26 25 24 23 22 21 22 18 21 20 9 12 24 15 11 4 7 5 6 8 6 6 5 4 7 7 6 6 3 3 5 5 4 3 2 2 6 8 2 1 4 2 3 5
35 29 27 27 27 26 25 24 25 25 23 22 14 3 18 31 7 4 4 6 4 5 12 3 4 3 7 8 6 5 8 5 13 18 9 5 5 4 6 3 2 2 6 5 4 6 3
35 30 39 31 30 29 28 28 29 29 31 28 11 6 22 33 5 4 3 4 3 5 5 6 8 5 3 8 3 7 6 1 19 10 10 9 2 3 5 3 3 5 5 3 4 2 8
27 38 38 33 29 31 32 32 31 35 34 29 10 4 7 17 8 4 5 4 5 9 4 5 4 5 4 4 4 7 6 1 15 11 3 10 3 8 8 6 6 5 6 6 5 3 5
20 17 35 37 38 38 35 37 37 39 39 35 16 7 11 6 9 7 8 8 12 9 8 11 4 8 8 5 4 6 4 1 1 6 2 4 6 5 4 5 4 6 6 14 19 22 10
25 32 21 27 44 38 43 42 42 42 43 41 16 7 9 5 11 18 12 10 11 8 9 6 7 10 7 14 12 9 8 4 6 3 4 1 3 3 4 4 5 7 15 16 21 16 25
15 24 25 23 26 38 47 49 45 46 52 33 32 27 16 14 6 10 11 19 20 16 12 24 20 8 14 21 26 16 15 7 8 10 12 7 6 4 20 6 5 9 28 21 19 18 21
14 15 20 21 18 25 31 41 48 51 58 44 35 27 19 13 12 20 17 18 22 23 23 15 22 9 9 9 10 5 5 10 12 12 15 7 5 3 5 4 8 14 1 12 25 27 22
11 15 15 18 17 18 18 28 29 59 52 55 38 25 15 13 19 15 20 14 15 26 23 23 23 28 20 12 3 1 3 4 15 17 13 11 8 5 7 10 13 21 7 6 8 20 22
17 14 13 17 15 21 17 18 18 31 43 44 21 24 18 2 12 25 15 29 15 10 7 21 28 22 19 4 5 9 8 4 6 4 12 16 17 10 6 8 14 29 7 12 6 16 15
15 19 14 14 15 16 12 13 16 18 10 30 19 32 21 5 13 10 5 10 21 15 3 5 18 12 23 7 9 7 8 10 7 9 7 9 10 20 17 13 8 8 7 12 7 8 9
7 8 11 12 11 13 13 9 8 9 10 8 9 9 19 5 7 15 12 6 10 24 8 10 8 8 8 9 6 5 6 8 5 6 10 12 12 9 12 12 18 14 4 11 3 3 4
3 6 4 8 11 7 6 5 7 9 9 7 4 3 5 8 3 8 16 9 14 17 14 15 2 6 11 4 5 3 5 4 7 9 1 8 9 7 11 7 1 13 7 6 9 9 6
Wind_Direction
243 247 253 219 257 329 325 123 185 231 243 251 221 208 205 206 189 193 204 205 193 188 178 173 157 117 145 130 93 102 115 128 135 143 161 156 144 121 99 100 85 79 130 80 108 115 119
239 241 243 246 265 279 288 223 189 215 236 257 245 211 200 202 197 186 201 198 193 189 180 179 162 126 154 125 111 108 114 110 140 151 155 160 142 118 97 68 61 106 107 107 89 96 108
251 245 238 236 231 253 269 277 284 245 233 235 239 216 198 192 194 196 196 191 189 188 184 182 175 111 120 146 153 120 115 118 130 127 126 124 124 119 108 101 116 116 81 79 39 56 76
249 250 252 228 219 223 234 265 269 289 309 234 215 208 200 191 182 194 196 191 181 178 184 183 182 142 127 154 143 129 124 115 113 121 124 117 110 104 83 118 78 70 62 105 343 59 44
237 253 251 222 215 208 220 223 238 265 292 281 183 193 197 193 184 194 178 164 158 163 173 178 176 165 144 171 155 132 135 127 124 125 119 119 113 91 115 97 51 17 165 142 215 33 9
260 230 242 245 232 203 208 215 222 233 272 301 187 190 186 187 192 180 155 144 143 150 158 167 178 182 197 179 159 136 135 137 123 130 114 119 80 84 41 82 195 181 150 162 177 319 171
234 217 230 245 240 224 211 214 212 221 240 267 244 186 186 184 186 167 153 137 132 129 161 153 166 126 144 148 153 150 143 132 128 116 87 32 78 177 183 118 96 112 107 122 108 333 212
249 228 222 237 246 225 226 214 219 213 223 232 222 185 186 179 172 171 164 152 159 152 131 110 133 116 140 142 124 147 157 147 123 110 19 35 143 147 107 85 97 85 108 135 86 248 205
246 226 222 230 238 222 230 227 216 208 215 223 206 182 178 173 170 177 175 154 148 138 95 145 145 149 149 150 114 125 150 124 94 91 40 136 148 142 106 74 97 38 140 175 142 160 62
247 232 236 233 234 218 228 234 217 203 209 213 204 182 173 163 177 180 186 178 163 163 80 172 194 174 155 160 61 113 121 125 48 138 117 89 158 143 104 102 102 130 245 106 82 88 230
252 246 241 234 243 214 222 226 239 213 207 212 188 181 169 172 169 176 179 173 162 170 30 99 151 152 139 129 128 71 104 94 118 118 110 193 147 135 110 130 68 162 134 96 89 95 52
240 243 243 240 237 233 206 209 221 226 202 209 180 175 177 174 171 165 161 159 154 56 252 166 115 150 94 57 64 106 108 90 113 90 45 89 62 43 95 64 21 140 73 51 55 84 337
240 237 237 239 240 235 226 211 203 212 203 187 172 179 185 171 171 165 155 147 65 156 46 170 157 167 106 131 93 64 132 135 152 108 165 61 27 63 126 84 0 54 80 2 351 5 231
243 239 237 234 233 234 223 216 213 208 193 170 172 183 192 188 163 175 159 72 152 206 187 113 108 114 173 155 73 121 127 205 217 106 113 148 261 166 49 152 171 188 150 163 198 202 253
243 242 238 235 232 229 226 215 212 209 195 173 175 186 198 193 178 173 170 119 205 202 150 145 90 139 206 178 144 156 196 207 207 176 152 134 106 338 39 37 55 214 179 172 103 22 19
243 238 238 235 230 227 224 215 204 204 198 176 174 186 201 188 188 178 100 238 224 148 125 140 170 164 170 183 155 172 181 203 208 180 165 186 90 4 135 86 42 139 136 76 0 181 250
244 246 242 235 232 224 221 213 208 204 199 178 176 175 190 181 176 176 186 223 250 206 156 159 189 139 163 173 172 189 198 242 162 129 99 135 100 294 59 204 182 100 206 35 122 149 196
244 239 241 239 234 227 221 213 207 205 197 184 171 179 173 172 160 192 177 202 210 183 199 195 135 132 171 160 162 214 218 229 174 149 169 186 115 156 205 260 195 168 202 166 150 236 226
245 245 235 235 231 228 222 216 204 206 203 182 177 141 173 176 180 201 253 252 244 175 183 176 200 192 157 164 163 199 195 255 175 170 159 185 212 75 350 1 3 219 205 152 101 77 205
235 236 233 227 229 228 222 216 210 206 208 201 167 143 161 199 223 169 154 211 221 222 206 176 156 115 112 165 243 192 213 157 195 198 231 168 140 170 201 192 133 187 204 196 155 171 198
260 249 231 230 231 222 220 217 211 210 210 200 199 207 181 189 214 187 181 184 197 208 211 196 201 188 167 181 188 185 187 43 190 221 290 155 211 176 224 140 138 188 180 190 206 221 209
253 260 254 245 226 229 224 214 212 210 209 203 185 174 174 191 175 186 199 207 190 201 159 211 213 192 180 220 193 190 157 188 194 56 158 348 245 127 259 133 180 241 231 203 213 223 239
262 250 254 251 248 237 226 211 212 210 207 207 213 217 213 192 162 178 209 209 205 200 222 220 207 192 201 221 229 234 202 208 215 180 184 169 153 112 262 134 134 274 241 217 220 219 219
261 259 247 254 250 236 218 222 216 213 214 205 209 205 197 225 197 211 200 193 210 203 218 214 212 181 220 214 192 176 189 213 226 225 171 155 134 153 252 116 221 249 236 207 216 234 216
259 256 251 240 245 220 230 225 241 212 213 215 214 194 192 230 223 224 221 218 211 220 223 224 220 227 199 156 90 214 201 228 235 228 213 191 180 211 219 213 277 295 237 151 166 256 218
265 258 254 241 243 258 236 198 207 217 218 213 227 207 205 208 223 232 213 206 211 194 218 237 228 221 177 154 179 201 206 171 216 247 221 193 199 202 185 222 227 255 184 185 110 262 162
276 251 255 247 234 242 254 264 256 238 211 218 223 239 231 216 245 207 189 204 207 199 196 172 192 176 195 192 203 208 217 173 195 183 165 181 202 219 223 237 259 254 170 140 157 254 210
300 246 235 223 213 227 234 234 234 223 221 239 208 221 216 202 222 205 209 179 174 201 200 159 140 184 184 204 199 183 212 202 177 190 175 179 178 203 224 233 243 156 128 197 265 342 309
277 235 259 223 159 186 202 204 213 238 223 224 174 249 248 220 253 223 227 205 202 204 209 175 215 157 182 183 189 182 216 171 197 237 17 210 194 189 194 207 38 193 82 48 10 359 352
Height
1506 1505 1504 1505 1505 1505 1504 1503 1506 1508 1509 1508 1507 1508 1509 1510 1510 1512 1512 1513 1514 1515 1517 1519 1520 1521 1522 1523 1525 1525 1525 1525 1526 1527 1529 1529 1531 1533 1540 1545 1547 1553 1560 1561 1563 1564 1566
1499 1503 1505 1504 1505 1505 1504 1504 1504 1506 1506 1507 1506 1506 1508 1509 1510 1511 1512 1512 1513 1515 1517 1518 1520 1520 1522 1524 1525 1525 1525 1525 1526 1527 1528 1529 1530 1532 1539 1547 1549 1556 1560 1563 1565 1566 1568
1500 1500 1500 1501 1502 1505 1504 1503 1503 1503 1503 1503 1505 1506 1506 1508 1510 1510 1511 1511 1513 1515 1517 1518 1520 1520 1521 1524 1525 1525 1525 1525 1526 1527 1528 1529 1531 1534 1540 1548 1555 1558 1563 1565 1568 1568 1570
1495 1496 1497 1499 1498 1501 1503 1502 1502 1502 1501 1501 1502 1503 1505 1507 1509 1509 1510 1511 1513 1515 1518 1519 1520 1521 1522 1524 1525 1526 1526 1526 1527 1528 1529 1531 1532 1534 1541 1550 1556 1560 1563 1567 1570 1569 1571
1490 1495 1496 1495 1496 1497 1500 1500 1501 1501 1501 1500 1500 1502 1504 1506 1507 1508 1510 1512 1514 1516 1518 1519 1521 1522 1523 1524 1525 1526 1526 1527 1528 1529 1531 1532 1533 1539 1547 1551 1562 1565 1567 1563 1569 1570 1570
1490 1489 1493 1495 1493 1495 1496 1498 1499 1499 1500 1500 1499 1501 1502 1505 1507 1508 1511 1512 1514 1517 1519 1520 1521 1524 1524 1524 1525 1526 1527 1528 1529 1530 1533 1534 1535 1543 1550 1554 1562 1558 1565 1565 1563 1572 1571
1486 1487 1489 1493 1492 1492 1493 1495 1496 1497 1497 1498 1499 1500 1501 1504 1506 1508 1511 1513 1518 1520 1518 1519 1521 1521 1521 1523 1525 1526 1527 1528 1529 1531 1536 1536 1543 1549 1546 1547 1549 1553 1557 1561 1570 1571 1571
1484 1486 1486 1488 1490 1491 1491 1491 1492 1495 1496 1495 1496 1498 1500 1502 1505 1508 1511 1512 1512 1516 1519 1520 1520 1520 1521 1523 1525 1526 1528 1530 1529 1536 1537 1542 1551 1548 1548 1550 1552 1554 1559 1563 1571 1571 1571
1479 1483 1483 1485 1486 1488 1489 1488 1488 1491 1493 1494 1494 1495 1498 1501 1505 1508 1511 1512 1513 1514 1516 1521 1521 1522 1523 1524 1524 1526 1528 1528 1531 1536 1539 1543 1549 1549 1549 1553 1556 1565 1563 1566 1562 1569 1573
1477 1477 1481 1480 1482 1485 1487 1487 1487 1488 1490 1492 1493 1494 1496 1499 1507 1507 1511 1512 1513 1514 1521 1521 1522 1522 1523 1523 1526 1526 1527 1530 1533 1539 1542 1548 1550 1550 1551 1555 1559 1566 1568 1566 1568 1568 1566
1472 1475 1476 1477 1479 1481 1483 1485 1485 1486 1488 1489 1491 1494 1496 1499 1500 1504 1509 1511 1513 1515 1523 1523 1521 1522 1522 1525 1528 1528 1528 1529 1534 1538 1543 1547 1551 1551 1552 1556 1560 1564 1568 1570 1574 1579 1583
1466 1469 1471 1474 1475 1476 1478 1481 1483 1483 1485 1487 1490 1493 1495 1498 1500 1504 1507 1510 1514 1520 1523 1520 1520 1522 1523 1525 1527 1529 1529 1530 1534 1538 1543 1551 1552 1553 1558 1563 1562 1567 1573 1578 1585 1586 1581
1462 1464 1466 1468 1471 1473 1475 1477 1478 1480 1482 1484 1488 1492 1496 1498 1500 1502 1505 1509 1521 1524 1514 1518 1520 1521 1522 1526 1529 1530 1531 1534 1537 1545 1545 1551 1556 1557 1557 1563 1567 1571 1572 1585 1581 1595 1559
1457 1459 1461 1464 1466 1469 1472 1474 1477 1477 1479 1482 1487 1490 1493 1497 1499 1502 1505 1510 1518 1499 1507 1515 1517 1520 1520 1524 1530 1531 1532 1536 1534 1536 1554 1548 1555 1559 1559 1561 1561 1579 1573 1566 1568 1578 1563
1450 1454 1456 1459 1462 1464 1468 1471 1474 1475 1477 1480 1484 1487 1492 1496 1499 1501 1504 1519 1499 1495 1499 1508 1517 1518 1522 1524 1526 1528 1532 1533 1526 1529 1532 1549 1551 1561 1561 1561 1564 1570 1574 1570 1593 1618 1585
1443 1446 1450 1453 1456 1460 1463 1467 1470 1473 1475 1478 1481 1486 1488 1493 1497 1501 1505 1498 1494 1490 1495 1501 1496 1505 1517 1523 1526 1532 1530 1518 1517 1520 1523 1532 1555 1563 1562 1563 1564 1565 1568 1568 1580 1569 1571
1434 1439 1442 1446 1450 1453 1458 1462 1466 1470 1472 1476 1480 1484 1484 1490 1496 1501 1505 1498 1490 1488 1489 1495 1497 1505 1508 1516 1520 1525 1521 1513 1513 1521 1522 1532 1538 1567 1563 1562 1562 1568 1568 1578 1573 1570 1556
1423 1429 1434 1438 1442 1447 1452 1456 1461 1466 1469 1473 1477 1481 1480 1485 1494 1493 1497 1491 1485 1485 1488 1490 1492 1495 1502 1510 1515 1518 1514 1511 1508 1511 1521 1524 1544 1563 1558 1565 1564 1564 1558 1561 1550 1560 1584
1413 1417 1423 1429 1434 1439 1445 1450 1454 1460 1462 1467 1473 1476 1479 1480 1486 1490 1488 1486 1484 1484 1484 1487 1489 1489 1494 1502 1507 1508 1507 1503 1505 1507 1511 1516 1537 1560 1555 1564 1563 1560 1557 1559 1566 1568 1558
1402 1406 1411 1417 1424 1430 1435 1442 1448 1451 1456 1464 1469 1474 1477 1478 1474 1476 1484 1482 1483 1478 1480 1481 1484 1487 1493 1496 1499 1504 1506 1504 1505 1505 1505 1507 1524 1518 1511 1519 1537 1554 1551 1549 1545 1554 1533
1397 1397 1401 1406 1413 1417 1425 1431 1439 1443 1448 1457 1459 1458 1459 1464 1467 1471 1473 1472 1474 1475 1476 1477 1480 1481 1487 1496 1496 1500 1502 1505 1505 1504 1506 1509 1515 1521 1519 1519 1524 1526 1529 1533 1531 1512 1515
1390 1392 1393 1396 1401 1406 1411 1419 1427 1434 1440 1445 1445 1448 1453 1454 1455 1464 1467 1461 1463 1467 1470 1473 1475 1475 1480 1478 1478 1491 1493 1499 1495 1504 1507 1509 1513 1515 1515 1520 1518 1517 1509 1512 1510 1507 1501
1383 1384 1386 1388 1391 1393 1397 1405 1414 1422 1427 1425 1434 1438 1442 1443 1450 1455 1442 1443 1449 1457 1457 1457 1460 1469 1472 1465 1473 1473 1477 1482 1483 1489 1499 1507 1507 1512 1488 1517 1519 1509 1468 1483 1485 1481 1478
1378 1379 1381 1383 1383 1384 1387 1395 1401 1408 1409 1414 1421 1428 1435 1427 1437 1424 1431 1439 1441 1443 1445 1450 1457 1461 1461 1464 1469 1473 1477 1477 1480 1482 1482 1501 1504 1501 1500 1511 1504 1440 1455 1455 1460 1458 1468
1373 1374 1376 1378 1379 1380 1383 1384 1383 1393 1400 1406 1409 1412 1416 1415 1419 1427 1427 1432 1438 1441 1442 1446 1447 1448 1455 1462 1470 1474 1474 1476 1468 1471 1475 1476 1490 1493 1489 1486 1466 1446 1447 1458 1459 1440 1446
1369 1370 1372 1373 1375 1376 1377 1380 1383 1389 1393 1395 1396 1401 1407 1411 1406 1413 1419 1422 1425 1432 1439 1437 1443 1447 1449 1458 1462 1459 1458 1465 1467 1458 1457 1468 1471 1479 1479 1471 1464 1413 1439 1435 1443 1444 1431
1365 1367 1368 1370 1372 1374 1376 1378 1380 1384 1385 1387 1385 1393 1398 1401 1403 1408 1408 1410 1417 1421 1426 1428 1433 1440 1444 1445 1445 1444 1442 1445 1455 1455 1453 1459 1465 1459 1459 1455 1447 1431 1434 1438 1453 1426 1417
1362 1364 1365 1366 1369 1371 1374 1376 1378 1380 1383 1384 1389 1390 1395 1398 1401 1401 1404 1406 1407 1410 1414 1419 1428 1428 1435 1435 1434 1431 1429 1433 1439 1432 1437 1436 1445 1445 1448 1447 1441 1425 1434 1433 1423 1416 1418
1362 1363 1363 1365 1366 1369 1372 1374 1378 1381 1384 1385 1385 1386 1395 1400 1400 1398 1401 1401 1402 1404 1409 1409 1410 1413 1416 1421 1420 1419 1417 1420 1417 1417 1426 1424 1416 1426 1424 1417 1416 1415 1420 1422 1422 1421 1419